Theta_e
328 330 330 332 331 330 329 330 331 330 330 331 332 332 332 333 331 329 329 330 328 331 333 331 330 330 330 330 329 328 327 326 327 327 328 328 327 326 326 326 324 323 321 318 318 321 324 326 328 330 331 332 332 332 332 333 333 333 333 333 333 333 332 332 331 331 330 330 329 329 329 329 329 328 328 328 328 328 328 327 326 326 326 325 325 326
327 331 331 329 328 328 328 328 329 331 331 331 331 332 332 332 331 329 328 329 329 330 331 329 330 329 328 329 329 329 328 326 326 327 328 327 327 327 326 328 327 324 323 321 319 317 320 324 326 328 330 332 332 332 332 333 332 332 333 333 333 332 332 332 332 331 331 330 330 329 329 329 328 328 328 328 328 328 328 327 327 326 326 325 323 325
329 331 329 327 326 326 328 328 329 331 331 331 331 332 333 331 330 330 328 328 329 329 331 331 329 327 326 327 328 328 328 327 327 327 327 328 328 327 327 327 327 327 327 327 324 319 317 320 324 326 328 330 332 332 332 332 332 332 333 333 333 332 332 332 331 331 331 331 330 330 329 328 328 328 327 327 327 327 327 327 327 326 326 326 324 324
331 330 328 326 326 327 327 328 329 331 331 332 331 331 332 331 331 332 330 329 329 331 336 336 331 329 329 330 329 328 327 327 329 329 328 329 330 329 329 328 327 328 328 328 328 324 318 318 321 324 326 328 330 331 332 332 332 332 332 332 332 333 332 332 332 331 331 330 330 329 329 328 328 327 327 327 327 326 327 327 326 326 326 326 325 324
328 328 327 327 327 327 328 329 330 332 332 331 330 330 330 331 331 331 330 330 330 331 333 334 334 332 331 333 331 329 329 328 329 330 329 329 329 329 330 330 329 328 328 327 328 327 322 318 319 322 325 326 328 330 331 332 332 332 332 332 332 332 332 332 331 331 331 330 329 328 328 327 327 327 327 326 326 326 326 326 326 326 326 326 326 325
324 325 328 328 327 327 328 330 330 331 332 331 330 330 329 330 331 330 330 331 333 334 332 332 336 335 331 332 331 329 331 330 328 329 329 328 328 328 328 329 329 328 328 327 326 327 325 320 318 320 323 325 327 328 330 331 331 332 332 332 332 332 332 332 332 331 330 329 329 328 327 327 327 326 327 327 326 326 326 326 326 325 326 325 325 325
322 323 328 328 327 328 328 330 329 329 332 332 330 329 328 329 330 330 330 332 334 334 332 332 335 335 332 332 330 329 329 329 328 328 327 326 326 326 326 326 326 327 326 327 326 325 325 322 320 320 321 324 326 327 328 329 330 331 332 331 332 332 332 332 331 331 330 329 329 328 328 327 327 327 327 327 327 327 326 326 326 325 325 325 325 325
322 322 326 327 327 327 328 330 328 327 331 331 329 329 329 329 329 330 331 332 333 332 331 331 332 334 333 332 333 331 330 329 328 327 326 325 325 325 325 325 325 326 325 326 326 325 325 322 321 321 321 323 325 326 327 328 329 330 331 331 332 331 332 331 331 331 330 330 329 328 328 327 327 327 327 327 327 326 327 326 326 326 325 325 325 325
323 322 324 325 327 328 327 327 326 327 329 330 329 330 329 328 328 329 329 330 330 330 332 330 330 333 332 330 333 333 331 330 328 327 326 325 326 326 325 325 325 325 325 325 325 326 325 322 321 321 322 323 324 325 326 327 328 329 330 331 331 331 331 331 331 331 330 330 329 329 328 327 327 327 327 327 327 326 327 326 326 326 325 325 325 325
324 323 322 323 326 327 326 326 326 327 326 327 329 329 328 328 328 329 328 326 326 328 331 329 329 333 332 329 331 332 329 327 327 326 326 325 326 326 325 325 325 324 325 324 324 325 323 321 322 322 322 322 323 325 326 327 327 329 329 330 331 331 331 331 331 331 330 330 330 329 328 328 327 327 327 327 326 327 327 326 326 326 325 325 325 325
322 321 321 322 325 324 324 325 325 325 325 324 325 326 329 328 325 326 326 324 326 328 329 327 327 330 332 329 328 328 327 325 325 324 324 324 325 326 325 325 325 324 325 325 325 324 322 321 322 322 322 322 322 323 325 327 327 328 329 329 330 330 330 331 331 331 330 330 330 329 329 328 328 328 327 327 326 326 326 326 326 326 325 325 325 325
320 321 322 323 323 323 324 325 323 323 323 324 324 325 329 327 323 324 323 322 327 330 328 326 326 328 331 329 324 325 325 324 324 323 322 323 323 324 323 323 324 324 324 324 325 325 324 323 322 321 321 322 322 322 323 325 327 327 328 329 329 329 330 330 331 330 331 330 330 329 329 329 328 328 328 327 327 326 326 326 326 326 325 325 325 325
319 320 322 321 321 322 324 325 323 321 321 323 324 326 329 328 327 329 327 326 327 328 328 327 326 328 328 326 323 324 323 322 323 322 322 322 322 322 322 322 322 322 323 323 323 324 325 325 324 321 321 321 322 322 322 323 324 326 327 328 328 329 329 329 330 330 330 330 330 330 329 329 329 328 328 327 327 327 326 326 326 326 325 325 325 325
318 317 319 320 320 322 324 324 323 321 321 323 325 326 327 328 330 331 330 328 327 327 327 326 326 327 325 323 323 322 320 321 322 323 323 324 323 322 322 322 322 322 322 322 323 323 323 324 324 321 321 321 322 322 323 322 322 323 325 326 327 328 328 329 329 329 330 330 330 330 329 329 329 328 328 328 327 327 327 326 326 326 326 326 325 325
317 316 317 319 321 322 322 322 322 322 322 323 323 323 325 326 325 326 328 327 326 326 326 326 326 327 325 322 323 322 321 321 321 321 323 324 323 321 321 321 321 322 321 322 322 322 322 322 321 320 320 321 322 322 323 323 323 322 322 323 325 326 327 328 328 329 329 330 330 330 330 329 329 329 328 328 328 328 327 327 326 326 326 326 326 326
313 315 316 316 319 322 322 321 322 324 324 323 323 323 324 325 322 321 325 325 323 324 324 325 327 328 326 324 325 325 324 321 320 321 321 321 321 320 320 320 320 320 320 321 322 322 322 321 319 319 320 321 321 322 322 322 323 323 322 322 323 324 325 326 327 328 328 329 329 330 329 329 329 329 328 328 328 328 327 327 327 326 326 326 326 326
312 313 316 316 319 321 321 321 321 323 325 322 323 324 323 324 324 324 326 323 322 325 324 323 326 327 326 324 324 324 325 323 322 322 320 320 320 320 320 319 319 320 320 320 321 321 321 321 319 318 320 321 321 322 322 322 323 323 323 322 322 322 323 324 325 326 328 328 329 329 329 329 329 329 329 328 328 328 328 327 327 327 326 326 326 326
311 310 314 316 317 319 319 321 321 321 324 324 323 324 323 322 322 322 325 324 324 326 325 322 323 324 325 326 325 323 323 324 323 321 320 321 321 321 320 320 320 321 320 320 320 320 321 321 319 318 319 320 321 322 322 323 323 323 323 322 322 322 322 323 324 325 326 327 328 328 329 329 329 329 329 328 328 328 328 327 327 327 327 327 326 326
312 310 315 317 317 318 319 321 323 321 322 323 321 322 322 323 323 322 323 326 327 326 326 325 324 323 323 325 326 324 323 324 324 322 322 322 323 322 321 321 322 321 321 321 321 320 320 321 319 316 318 319 319 321 322 322 323 322 322 322 322 322 322 323 323 324 325 326 327 328 328 328 329 329 329 329 328 328 328 327 327 327 327 327 327 326
313 310 317 317 315 319 320 320 323 322 321 320 319 319 319 320 324 325 323 326 328 326 325 326 325 325 324 321 322 323 322 322 322 322 323 322 322 323 323 323 323 322 322 321 321 321 321 321 318 316 317 318 318 320 320 321 322 321 322 322 322 322 322 322 323 323 324 325 326 327 327 328 328 328 328 328 328 328 327 327 327 327 327 327 327 326
317 312 314 317 316 319 320 319 320 320 321 320 320 321 320 318 320 322 322 324 327 326 326 327 326 326 323 320 320 321 319 320 323 324 323 321 320 322 322 322 323 322 322 322 321 321 321 320 318 316 316 317 318 319 320 321 321 322 322 322 322 322 322 322 322 323 324 324 325 326 327 327 328 328 328 328 328 328 328 327 327 327 327 327 327 326
319 315 313 316 318 318 318 318 319 319 320 320 321 322 321 320 321 322 323 324 323 323 325 325 325 327 325 320 319 319 318 319 321 321 320 318 318 317 318 320 321 321 322 321 321 321 321 321 319 317 316 316 317 318 319 321 321 322 323 322 323 323 323 323 323 323 323 324 324 325 326 326 327 328 328 328 328 328 328 328 328 327 327 327 327 326
318 318 316 317 318 319 318 318 319 321 321 320 320 320 320 320 321 323 324 323 322 321 322 322 323 327 327 322 320 319 318 319 321 321 319 319 319 319 320 322 322 322 321 320 321 320 320 321 318 316 316 316 316 318 318 319 320 321 322 323 323 323 324 324 324 323 323 323 324 324 325 326 326 327 327 328 328 328 328 328 328 328 327 327 327 326
316 318 318 317 317 318 318 316 315 317 320 321 320 320 319 320 320 320 321 321 321 322 323 323 323 324 324 325 324 321 318 319 323 322 320 321 323 322 321 320 320 321 320 320 320 319 320 321 319 320 321 317 315 317 318 318 320 321 322 322 322 322 323 323 323 323 322 322 322 323 323 325 326 326 327 327 328 328 328 328 328 328 327 327 327 326
314 316 316 316 316 316 317 316 315 314 316 319 320 319 319 319 319 320 320 320 321 321 321 323 322 322 324 327 325 321 319 318 319 320 319 320 322 321 319 319 318 318 320 321 321 320 321 321 321 326 327 317 313 316 317 317 319 319 320 320 320 321 321 321 321 321 321 321 321 321 321 322 324 325 326 327 327 328 328 328 328 328 327 327 327 327
315 315 314 314 314 314 314 315 315 316 315 316 319 319 318 319 319 319 320 321 322 321 321 321 321 321 324 324 320 320 319 316 317 322 324 323 323 321 320 320 319 319 321 324 325 325 324 323 323 327 326 315 312 315 315 316 317 318 319 319 319 319 319 318 318 318 318 319 319 319 319 320 321 322 323 325 326 327 327 328 328 328 328 327 327 327
316 316 314 312 312 312 311 311 314 319 318 316 317 318 318 318 318 319 320 320 321 320 320 320 320 320 321 320 317 317 317 315 316 321 325 326 327 325 322 322 321 320 321 322 325 327 328 328 327 327 323 313 308 311 313 314 316 315 316 316 315 315 314 314 314 314 315 316 316 317 318 318 318 319 320 321 322 324 325 326 327 327 328 328 327 327
316 315 314 313 312 310 310 310 314 318 318 317 316 316 317 318 318 319 320 320 320 320 320 319 319 321 319 317 317 316 315 315 315 316 320 322 324 324 322 323 323 322 321 321 323 326 326 327 327 328 326 314 307 309 311 312 314 314 314 314 314 313 313 312 312 311 312 312 313 314 315 316 316 317 317 318 319 321 323 324 326 326 327 327 327 327
315 313 313 313 313 312 312 312 312 313 316 318 317 317 317 317 317 318 318 318 320 320 319 319 320 321 319 317 318 316 316 317 316 316 318 318 320 321 322 323 324 324 323 321 322 325 325 323 322 323 325 315 305 306 309 310 313 314 314 314 314 313 312 312 311 311 311 310 310 311 311 312 313 313 315 316 316 318 320 322 324 326 326 327 327 327
314 314 315 315 314 313 313 313 312 311 313 314 315 317 317 317 316 316 315 316 317 318 319 319 320 320 319 319 319 317 320 324 321 319 318 318 319 321 322 323 323 322 322 321 321 324 323 322 320 321 325 320 308 305 307 309 312 314 314 313 313 312 312 311 311 311 310 310 310 310 310 310 310 311 312 313 315 317 319 321 323 324 325 326 326 327
312 315 317 316 314 314 313 313 313 313 313 313 313 315 316 317 316 315 314 315 316 317 318 318 318 318 318 319 318 317 319 322 320 317 318 317 317 318 319 321 320 320 321 321 322 323 323 323 323 324 332 328 313 307 308 310 312 313 313 313 312 311 311 310 310 310 310 310 310 310 310 310 311 312 312 313 315 316 318 320 322 323 324 325 326 326
311 314 316 316 315 313 313 314 313 312 313 314 314 314 314 315 314 313 314 315 315 316 316 317 318 317 317 317 317 317 317 317 317 317 317 316 316 316 317 317 317 318 319 321 323 325 324 324 324 326 330 322 310 308 311 311 311 312 311 311 311 311 310 310 310 310 310 310 310 310 310 311 312 313 314 315 316 317 318 320 321 322 323 324 325 325
313 314 315 315 315 312 312 315 315 313 312 312 312 313 313 313 313 313 313 314 315 315 315 316 315 315 315 315 316 316 316 316 316 316 316 316 315 315 315 315 316 317 318 321 324 326 325 325 325 324 320 312 307 308 310 309 310 311 310 310 310 310 310 310 310 310 310 310 310 310 310 312 313 314 315 316 317 317 318 319 320 321 322 323 323 323
312 314 314 314 314 313 312 314 315 313 312 311 312 313 313 312 313 313 313 313 314 314 314 314 313 313 314 314 314 315 314 314 314 314 314 315 314 315 315 315 316 318 321 323 324 325 324 323 320 313 308 306 307 307 307 307 307 308 309 310 310 310 310 310 309 309 309 309 309 309 310 312 313 314 315 316 317 318 318 319 320 320 321 322 322 323
310 313 313 312 312 312 311 313 314 311 310 310 313 315 314 313 312 313 313 312 312 312 313 313 313 313 313 312 312 312 312 311 311 311 311 311 312 312 313 314 316 319 321 322 322 323 323 322 318 308 303 304 305 305 306 307 306 306 308 309 309 309 309 309 308 308 308 308 307 308 308 309 310 312 313 314 315 316 317 318 319 320 320 321 321 321
309 312 313 311 311 311 311 312 311 309 307 308 310 310 310 311 312 312 313 313 311 311 311 311 311 311 311 311 311 310 310 310 310 309 310 310 310 311 312 313 314 318 320 320 321 322 317 312 309 305 301 301 303 304 305 305 305 306 306 307 307 307 307 307 307 306 306 307 307 307 307 307 307 308 309 310 311 312 314 315 317 318 319 319 319 318
310 311 312 311 310 310 310 310 310 308 307 307 306 307 307 310 313 314 313 313 312 311 311 311 311 310 310 310 310 310 310 310 310 310 310 310 311 313 315 315 315 317 319 316 312 309 303 299 299 300 300 301 302 303 304 304 305 305 305 305 305 305 304 304 303 303 304 305 305 306 307 307 307 307 307 308 308 309 310 312 313 314 315 316 316 315
308 311 311 310 310 310 309 310 310 309 307 305 305 308 308 310 313 314 312 311 311 311 311 311 311 311 311 310 310 311 311 312 312 311 310 313 316 316 317 318 316 316 314 308 302 299 297 296 296 298 299 300 300 301 303 304 305 305 303 302 301 301 301 300 299 300 301 302 302 303 305 306 307 307 307 307 308 308 308 308 309 309 310 311 311 312
308 309 308 308 309 309 308 310 308 306 306 304 305 310 311 312 313 314 313 312 309 308 310 311 311 311 311 311 311 310 312 313 313 310 312 319 322 319 318 318 314 308 303 299 299 297 296 295 295 295 296 297 297 298 300 302 303 302 299 297 298 298 297 296 296 297 298 299 299 300 301 303 305 306 307 307 307 307 307 307 307 307 307 307 308 308
307 308 308 308 309 307 307 309 307 305 305 303 305 310 313 313 314 315 314 312 308 308 311 311 311 311 311 311 311 311 312 313 311 311 318 322 320 316 315 314 311 305 298 295 295 296 295 295 295 294 294 294 295 296 298 300 300 297 295 294 295 295 293 294 295 296 296 297 297 298 299 300 301 303 304 305 305 305 305 305 305 305 305 305 305 305
307 308 308 308 308 307 307 307 306 306 305 303 307 314 315 313 315 314 312 309 306 310 314 313 312 311 311 310 311 311 311 311 311 315 318 315 311 309 307 304 301 298 296 294 294 294 294 294 294 293 293 294 294 295 297 299 297 294 293 293 293 293 293 294 295 295 296 296 296 297 297 297 298 299 299 300 301 302 302 303 303 303 303 303 303 303
306 308 308 308 307 306 306 306 305 306 304 304 309 314 313 311 312 310 307 307 308 310 315 317 315 313 311 311 311 311 311 312 314 314 309 304 302 301 299 297 296 294 293 293 293 293 293 293 292 292 293 294 294 295 297 298 295 292 293 293 292 293 294 294 295 295 296 296 296 296 296 296 297 297 297 297 298 298 299 299 300 300 301 301 301 301
306 307 307 307 307 306 306 306 305 305 304 305 309 311 310 309 309 306 305 309 311 310 314 318 317 314 312 312 311 310 311 311 309 305 301 298 297 296 295 295 295 294 293 293 293 293 292 292 292 292 292 293 293 294 296 296 294 292 293 292 292 294 294 294 294 295 295 296 296 296 296 296 296 296 297 297 297 297 297 297 297 298 298 298 299 299
305 306 307 307 307 306 306 306 305 304 304 306 308 310 309 307 307 309 309 310 311 311 312 314 314 312 310 310 310 309 308 307 304 301 299 297 296 296 296 295 294 293 293 292 292 293 292 292 292 292 292 293 293 293 294 294 293 292 292 292 293 295 295 295 295 295 295 295 295 295 295 296 296 296 296 296 296 297 296 296 297 297 297 297 297 297
305 305 306 307 306 306 306 305 304 302 305 308 312 314 312 308 309 311 311 311 312 312 311 312 313 312 309 308 308 307 306 304 302 300 299 297 296 296 296 295 294 293 292 292 292 293 292 292 292 292 291 292 293 293 294 294 293 292 291 292 293 294 294 295 295 295 295 294 294 295 295 295 296 296 296 296 296 296 296 296 296 296 296 296 296 296
306 306 306 308 308 306 305 305 304 304 305 309 313 313 311 310 311 312 312 312 311 309 309 310 312 313 310 307 308 307 304 301 299 298 297 296 295 295 295 295 294 292 292 292 292 292 292 292 292 292 291 291 292 292 292 293 293 292 291 292 293 293 293 294 294 294 293 293 293 293 294 295 295 295 295 296 296 296 296 296 296 296 296 296 296 295
307 306 307 309 310 308 307 307 306 305 306 308 310 310 309 309 310 311 310 310 309 308 308 310 310 309 306 305 306 305 301 297 297 297 296 295 295 294 294 295 294 293 292 291 292 292 292 292 292 291 291 291 291 291 291 292 292 291 292 292 292 292 293 293 293 292 292 292 292 293 293 293 293 293 294 294 295 295 296 295 296 296 296 295 295 295
307 306 307 309 309 308 308 309 309 308 308 309 310 311 311 310 310 309 306 306 306 307 306 305 304 303 302 301 301 300 298 296 296 296 295 295 295 294 293 293 293 292 291 291 291 291 291 291 291 291 291 290 290 290 291 291 290 291 291 291 291 292 292 292 291 291 291 291 292 292 292 292 292 292 292 293 293 294 294 294 294 295 295 295 295 295
306 306 308 310 309 308 308 309 309 308 309 310 309 309 310 310 310 308 304 303 304 305 303 300 299 300 302 301 299 298 297 296 295 295 295 294 293 293 292 292 291 291 290 290 290 290 290 290 290 290 290 290 290 290 290 290 290 290 290 290 290 291 291 291 290 290 290 290 291 291 291 291 291 291 291 292 292 292 292 293 293 293 294 294 294 294
306 307 308 309 309 309 308 308 309 308 309 309 310 312 313 309 306 305 304 303 303 303 301 300 298 298 298 298 297 297 297 296 294 294 294 293 292 292 291 291 290 289 289 289 289 289 290 290 289 289 289 289 289 289 288 288 288 288 288 288 289 289 290 290 290 290 290 290 290 290 290 290 290 290 290 290 291 291 292 292 292 292 293 293 293 293
306 307 307 307 308 307 307 310 311 310 309 309 310 314 315 309 304 304 304 303 303 301 300 301 300 297 296 295 295 295 295 294 293 293 292 292 291 290 290 289 289 288 288 288 288 289 289 289 288 288 288 288 288 287 287 286 286 286 286 287 288 289 289 289 289 289 289 289 289 289 289 289 289 289 289 289 289 290 290 290 291 292 292 292 292 292
Wind_Speed
6 5 5 9 11 15 17 17 18 13 6 7 9 9 7 6 6 5 6 6 5 4 7 11 13 13 10 10 11 11 10 9 9 8 7 8 7 7 7 7 9 9 11 16 21 24 28 32 35 35 35 35 36 37 38 39 40 42 41 41 42 43 42 41 41 41 41 40 38 37 39 42 43 43 43 44 44 44 44 44 43 43 43 43 44 45
6 8 10 15 17 17 17 15 14 11 9 9 7 6 6 8 8 6 7 7 4 3 8 9 10 14 11 9 10 10 10 10 10 10 10 11 9 7 8 9 9 8 8 11 13 18 24 28 30 32 32 32 34 37 39 40 44 45 44 43 44 43 42 43 44 43 43 44 42 42 44 45 43 43 44 46 47 47 45 44 44 44 44 44 45 45
5 8 14 19 16 13 13 13 13 13 13 11 5 5 7 7 5 4 5 7 5 4 8 9 10 14 11 9 11 11 11 10 9 11 10 10 10 8 8 8 9 8 8 9 9 13 21 26 29 28 29 33 36 38 39 42 44 44 43 44 44 43 44 46 47 46 46 47 46 46 44 42 40 40 43 45 44 43 42 43 43 44 45 45 44 45
6 8 16 18 13 12 12 11 13 12 11 10 7 7 8 6 6 5 5 6 6 5 6 5 7 11 8 7 9 10 12 8 7 10 10 9 10 10 9 8 8 9 9 10 9 10 16 22 25 26 29 34 35 35 37 41 42 41 42 44 44 44 45 47 48 49 50 47 44 43 40 37 36 36 37 39 40 39 40 41 43 44 46 45 45 45
10 8 9 12 11 13 13 10 12 11 9 11 11 10 10 8 8 7 5 5 5 7 6 2 5 8 7 8 8 7 8 8 7 8 9 9 10 9 9 8 8 9 9 10 11 10 11 16 22 28 33 34 34 35 38 42 42 42 44 45 45 44 46 47 48 50 47 42 39 37 34 31 31 32 32 34 38 40 40 43 46 48 47 46 47 47
14 8 6 11 12 12 13 12 13 12 9 11 12 13 13 8 7 6 5 6 4 7 7 5 6 8 6 10 10 7 7 10 10 9 11 11 10 9 9 9 10 10 10 11 12 12 11 15 21 27 32 33 33 37 41 43 43 43 44 46 46 45 46 47 48 47 43 40 39 36 34 32 31 32 34 40 43 43 46 49 50 49 48 48 49 48
10 9 7 12 12 12 13 12 14 14 9 9 10 14 14 7 5 6 6 6 6 6 5 6 7 8 4 7 10 9 10 13 13 13 15 12 10 11 10 10 10 10 12 12 13 14 13 16 18 21 28 31 33 39 43 43 42 43 44 45 46 47 47 48 48 45 42 41 40 40 40 40 37 35 41 48 47 44 47 48 46 45 47 48 49 49
9 13 10 11 12 12 12 9 12 15 12 9 8 12 12 10 9 8 7 5 3 2 3 4 6 7 8 6 7 8 10 12 14 15 16 12 11 12 11 11 12 12 13 13 13 14 14 16 18 21 27 32 36 41 42 41 41 43 46 47 47 47 47 48 47 45 44 45 44 43 43 41 41 42 46 46 41 40 42 41 42 43 44 46 47 48
6 14 14 13 11 9 10 8 9 13 11 6 5 9 11 14 13 9 6 5 1 1 3 4 5 6 10 6 5 7 9 11 12 15 16 13 11 12 12 12 13 14 14 13 14 15 14 17 23 27 30 34 38 41 42 43 44 45 47 48 46 46 47 48 47 44 45 47 47 45 43 41 42 45 46 40 33 35 37 38 40 40 41 43 45 47
2 7 11 11 9 8 9 8 9 12 9 2 6 7 5 8 10 8 6 4 2 3 8 9 6 6 11 7 5 6 10 12 12 12 14 13 10 11 12 13 13 13 12 12 13 14 16 21 28 31 33 35 37 40 43 44 44 44 44 45 44 45 46 47 46 44 45 48 47 45 42 42 43 44 43 37 31 32 34 36 38 38 40 41 43 46
1 2 5 7 8 9 8 5 7 12 9 2 5 2 3 0 4 4 4 4 3 6 10 12 11 8 10 9 7 8 10 11 10 10 12 12 11 11 12 11 12 11 11 11 12 13 17 24 30 30 31 34 36 38 41 41 41 41 42 42 43 45 46 46 45 45 46 47 47 46 45 45 46 45 42 37 35 34 34 36 38 38 39 40 42 43
2 1 2 2 3 5 7 4 1 5 9 4 4 2 1 1 1 1 1 2 4 5 8 13 13 10 11 12 7 8 11 12 11 12 13 13 13 12 11 11 11 12 12 12 12 13 14 18 23 24 26 31 34 35 37 39 40 41 42 42 42 43 45 45 45 45 46 46 46 47 47 47 48 48 43 39 39 39 36 37 37 36 37 38 40 40
6 3 2 3 3 4 8 7 1 2 4 5 4 4 4 3 2 3 3 3 5 6 6 11 13 11 12 14 9 8 11 11 11 12 13 14 14 12 12 13 12 12 13 13 13 14 14 14 15 17 23 28 31 33 36 39 40 39 41 41 40 43 46 46 45 44 45 46 47 48 49 49 50 49 46 42 42 41 39 38 37 36 36 37 38 41
4 4 3 2 2 4 9 9 6 3 6 10 9 8 7 5 5 7 6 5 7 8 7 9 10 7 7 11 13 15 15 10 9 10 10 11 12 12 13 13 12 12 13 13 13 13 14 14 14 16 21 25 28 33 37 38 38 38 39 39 40 44 46 44 44 44 45 46 48 50 51 51 49 48 46 45 44 43 41 40 39 38 38 38 40 44
9 7 7 10 6 7 11 12 10 7 7 10 8 8 9 7 6 6 6 7 8 6 5 5 6 6 5 7 9 13 15 13 13 12 9 9 11 12 12 11 11 12 11 11 12 14 15 15 16 17 22 26 29 34 35 36 37 36 37 39 40 43 44 43 43 44 44 46 48 49 50 49 48 48 47 46 46 45 43 42 40 40 40 41 43 45
12 8 7 13 9 10 13 10 6 6 4 5 3 6 10 8 7 6 3 6 5 5 5 3 4 4 4 7 6 6 10 13 16 14 12 16 16 13 12 12 13 12 11 11 11 14 16 16 16 19 23 27 29 31 34 35 36 36 38 39 40 42 45 44 44 44 45 47 47 48 49 49 49 49 47 46 46 45 45 43 41 41 42 43 44 44
9 8 4 7 7 11 14 10 8 7 5 2 4 8 6 2 4 6 5 1 2 6 6 5 7 5 3 9 7 6 8 9 13 13 13 16 16 13 13 13 13 12 12 13 12 15 16 14 15 20 23 26 28 30 32 35 37 38 39 39 39 41 42 42 42 44 45 46 46 47 48 49 50 49 48 47 47 46 45 43 41 42 43 44 44 44
7 7 2 6 9 11 8 8 8 8 6 4 5 8 3 3 1 2 4 3 4 7 5 8 13 9 6 7 6 10 10 8 12 14 12 12 12 12 13 12 11 11 12 14 14 15 15 13 15 19 24 28 31 31 33 37 40 40 40 39 38 38 40 41 42 43 45 45 45 47 48 50 50 50 50 50 49 47 43 41 42 42 43 45 45 44
5 4 3 7 12 6 4 7 6 7 5 4 3 3 2 2 4 3 4 5 7 8 5 8 13 9 9 7 5 10 12 10 13 14 11 11 10 10 11 10 11 12 11 12 13 13 13 13 15 19 25 29 30 31 33 37 38 36 37 37 37 39 40 42 43 42 43 44 45 46 47 49 50 49 49 49 48 45 42 41 42 43 45 46 44 43
5 4 5 4 6 6 5 5 7 7 3 1 1 1 1 2 6 5 4 3 4 8 7 8 9 6 7 9 9 13 13 11 12 11 10 11 9 8 9 10 11 11 10 10 11 13 14 14 16 21 25 27 29 31 34 36 35 33 34 35 36 38 38 38 39 38 40 42 44 45 45 46 46 47 47 47 46 44 43 44 44 45 46 45 43 41
3 4 5 3 1 7 6 7 12 14 8 3 5 6 4 3 2 2 2 2 3 5 6 7 7 5 4 8 13 19 14 9 10 9 9 10 9 10 9 9 9 9 9 10 10 12 14 15 17 22 25 26 27 29 30 31 32 33 34 34 35 35 35 36 37 37 39 41 42 43 44 44 44 45 45 45 43 43 43 44 45 45 45 43 41 40
2 5 4 1 2 6 7 6 8 11 11 9 8 9 8 7 4 3 3 2 2 3 4 4 4 4 3 5 10 15 12 7 8 9 9 10 11 10 8 8 9 9 10 11 12 13 14 14 17 20 21 21 21 23 26 28 30 31 31 32 32 32 34 36 37 37 37 38 39 41 42 43 42 42 42 42 42 42 43 44 44 44 42 40 40 39
3 3 3 2 3 5 6 3 3 1 4 6 7 8 8 8 7 7 7 4 3 4 4 3 3 4 5 6 7 10 9 5 7 8 7 8 9 8 8 8 9 10 11 11 12 13 13 13 15 17 17 17 19 22 25 26 27 28 29 29 29 30 33 34 34 33 33 34 36 38 39 39 40 39 38 39 40 42 43 43 43 42 40 40 40 38
2 3 3 3 1 3 3 2 5 5 4 2 6 8 8 9 11 11 9 7 7 6 5 4 5 4 4 5 6 8 7 5 6 6 5 5 7 8 10 10 9 10 11 11 11 11 12 12 12 11 10 12 17 20 23 24 24 25 26 26 26 28 30 30 28 28 28 30 33 34 35 36 37 37 37 38 39 40 42 42 41 39 38 39 38 37
6 4 5 4 1 1 3 3 4 3 1 3 6 9 11 13 13 11 7 7 8 9 9 8 6 5 3 5 6 8 10 7 5 4 4 5 7 9 11 11 9 9 8 10 11 12 12 12 11 8 8 10 15 19 21 21 21 21 22 23 23 25 26 24 23 24 25 26 29 31 33 34 35 36 37 38 39 39 40 39 39 39 38 38 38 38
6 5 6 8 6 6 8 7 6 5 3 2 3 8 13 14 15 11 6 7 8 8 10 10 8 5 4 8 10 10 13 11 5 3 5 6 7 9 9 10 10 9 8 9 11 12 12 11 11 10 8 10 14 18 18 18 18 19 20 21 22 22 22 21 20 20 21 22 25 28 31 33 34 35 36 37 37 38 38 38 38 38 38 39 39 38
4 5 8 11 12 11 12 10 5 3 4 5 7 11 13 12 12 9 6 8 7 7 10 11 9 7 7 11 15 13 13 13 9 5 6 6 7 7 7 8 9 9 8 8 8 10 11 11 11 10 9 9 13 15 15 16 18 18 18 19 19 18 18 19 18 18 19 21 23 26 29 30 31 32 33 34 35 35 36 36 36 37 38 39 38 37
3 6 11 15 16 14 11 7 2 5 4 7 9 11 11 10 10 9 10 10 8 7 11 10 7 9 10 13 17 16 14 13 12 10 8 6 6 6 6 7 9 10 11 10 9 10 11 11 11 10 9 9 12 15 18 18 17 16 16 17 15 14 15 16 16 17 18 19 21 25 27 27 27 28 29 30 31 32 32 33 34 35 36 36 35 36
4 8 11 12 15 14 11 7 2 3 3 5 6 8 9 10 12 14 14 13 10 10 10 8 6 9 9 10 15 17 13 12 13 10 6 5 5 6 6 7 9 10 12 11 9 10 10 10 10 10 11 10 10 13 18 18 16 15 16 15 13 12 12 13 14 16 17 18 21 23 23 23 23 24 25 26 27 28 29 30 31 33 33 33 34 35
4 6 4 6 11 12 11 9 5 4 4 3 5 6 6 8 10 12 13 14 14 13 12 11 13 12 8 7 15 17 9 6 8 7 5 6 7 7 7 8 9 10 11 11 10 9 9 9 8 8 10 11 9 10 15 17 16 15 14 13 12 11 11 12 14 15 16 17 18 18 18 18 19 20 22 23 25 26 27 28 29 30 31 32 33 33
3 4 3 5 6 9 9 8 6 5 6 5 5 6 6 7 8 9 10 10 11 11 12 13 15 14 10 10 17 20 12 8 11 13 12 11 9 8 8 9 10 11 11 12 10 9 8 8 8 8 8 9 10 11 14 16 15 13 13 13 12 10 9 11 13 14 15 15 14 14 14 15 15 16 17 19 21 23 24 25 26 27 28 29 30 31
3 3 2 5 4 7 6 7 5 4 4 3 6 8 10 11 10 10 9 8 9 8 9 10 10 10 11 11 15 20 19 17 19 18 16 15 13 12 12 13 14 15 15 14 11 9 8 7 8 9 8 9 11 13 13 14 13 11 11 10 9 7 7 9 10 11 13 13 12 12 12 13 12 13 15 16 18 20 21 22 23 25 26 27 28 29
5 4 2 4 6 6 2 6 6 5 3 4 9 12 16 15 12 10 8 8 10 9 8 9 10 11 12 11 13 19 22 20 19 16 15 16 16 15 15 17 17 17 17 15 11 9 9 8 8 9 8 7 8 11 13 14 13 10 6 5 4 4 5 6 6 8 10 11 12 12 12 12 12 12 14 15 16 18 18 19 22 23 24 25 25 25
5 6 3 4 4 3 2 5 6 2 4 7 5 7 13 15 13 13 13 13 13 11 9 10 10 11 13 12 15 20 21 19 18 15 13 13 14 14 15 15 15 14 14 13 11 9 8 7 6 7 6 4 5 7 10 11 11 9 5 1 0 1 1 2 4 6 8 10 10 11 11 12 13 14 15 15 16 16 17 18 19 21 22 22 23 23
6 6 3 3 4 2 1 5 5 4 8 4 3 3 10 14 15 16 16 16 14 12 12 12 13 13 14 16 17 18 20 21 21 17 15 14 14 14 14 13 13 12 12 13 13 11 7 5 5 4 1 1 3 5 7 9 11 10 6 3 2 1 1 1 2 4 7 9 9 9 9 11 13 14 15 15 16 16 17 17 18 19 20 20 21 22
7 5 3 2 3 2 1 3 3 6 6 7 9 6 5 5 7 8 9 11 12 12 12 13 16 17 17 19 19 18 20 22 19 15 14 14 14 13 13 13 12 12 14 14 14 10 6 5 5 3 3 3 4 4 4 6 8 7 5 3 4 4 4 5 6 6 7 8 9 9 8 8 11 13 14 14 15 16 16 16 17 18 18 18 19 19
8 6 3 2 2 2 2 2 3 5 9 13 12 6 5 4 5 6 6 9 10 12 13 14 17 19 19 19 20 18 17 15 13 13 14 14 13 12 12 14 14 12 12 10 6 4 4 5 5 4 6 7 7 5 3 2 2 1 1 5 7 7 8 10 11 11 10 9 9 9 7 7 8 9 11 12 13 13 13 14 14 15 16 16 17 17
7 6 5 3 2 3 5 1 3 2 6 14 7 6 8 8 8 8 4 7 10 12 14 15 17 19 18 17 18 16 12 8 10 15 15 11 11 12 13 15 12 8 5 4 4 5 5 4 3 3 6 9 9 7 6 5 4 4 7 10 10 10 12 13 13 12 10 9 9 9 8 6 6 6 8 9 9 10 10 11 11 12 13 14 15 15
5 4 5 5 3 3 5 3 3 3 10 13 2 7 6 7 8 7 3 8 15 13 12 13 15 17 16 15 15 13 7 5 10 15 11 5 10 12 14 12 6 4 5 6 7 7 8 8 7 7 8 9 9 8 8 9 9 11 12 13 13 14 16 16 15 13 10 9 10 9 8 6 5 4 6 7 7 7 7 8 8 9 10 11 12 13
5 3 4 5 4 4 5 3 3 4 12 11 3 6 4 7 10 8 2 10 16 9 9 11 12 14 15 15 13 9 6 8 12 12 5 4 4 5 6 7 6 6 6 6 8 8 9 10 10 10 11 10 10 9 10 13 16 17 15 14 16 18 18 17 15 13 10 9 9 8 7 6 4 3 3 5 6 6 6 6 6 7 8 9 10 11
3 3 4 6 6 5 6 4 3 4 12 10 5 8 6 8 9 3 8 13 12 2 7 10 12 13 15 13 9 7 9 12 12 8 2 1 2 3 2 2 5 7 7 9 11 11 12 13 13 13 12 10 10 10 13 18 20 19 16 16 18 18 18 16 14 13 11 10 9 9 8 8 7 6 5 5 5 5 5 6 6 7 7 7 8 9
4 3 3 5 5 4 5 4 3 6 11 8 9 11 9 7 3 8 11 11 8 1 5 8 11 12 12 11 9 10 10 8 6 5 4 4 4 4 4 4 5 6 6 8 11 12 14 14 13 14 13 12 13 12 15 21 22 19 18 19 19 18 18 16 14 14 15 14 14 14 14 13 12 11 10 9 8 7 6 6 6 6 6 6 7 8
7 6 5 6 5 4 4 4 3 7 8 6 12 9 6 7 8 9 7 7 6 3 4 6 9 8 7 9 10 9 6 4 4 4 4 5 5 5 5 5 5 4 4 6 7 10 14 14 13 14 14 15 16 16 18 22 22 19 19 19 18 18 18 17 15 16 17 18 19 19 18 18 18 17 16 15 13 13 12 10 9 8 7 7 7 8
7 7 5 6 5 5 5 7 9 11 6 8 10 7 8 11 9 4 4 6 5 2 3 5 7 6 4 7 8 4 1 1 2 3 4 5 4 5 5 5 5 5 4 5 5 7 12 13 13 15 16 17 19 21 22 24 23 21 20 19 17 18 17 16 16 18 20 21 22 21 20 20 21 20 20 19 18 18 18 17 16 14 13 12 11 10
9 8 4 4 6 7 7 10 13 11 5 5 5 5 9 11 6 3 3 5 5 2 4 4 6 7 4 4 4 3 3 4 4 4 5 5 5 6 6 5 5 6 6 6 7 7 9 12 13 15 16 18 20 22 23 24 24 22 19 17 17 18 16 15 16 19 21 23 23 22 21 21 21 21 21 21 21 21 21 21 20 18 18 17 16 15
6 6 3 2 5 6 7 11 13 11 7 6 6 4 4 5 4 1 4 7 6 5 5 4 7 7 5 6 6 5 6 6 6 6 5 6 6 6 7 6 7 7 7 7 7 7 9 11 12 14 15 17 19 21 22 23 23 20 16 15 17 16 14 15 16 18 20 21 21 21 21 21 21 21 21 20 21 20 20 21 20 20 19 18 18 16
3 5 4 2 5 6 7 11 13 13 12 7 5 5 5 5 5 5 6 7 5 5 5 7 7 6 6 7 6 5 6 6 7 6 5 6 6 6 7 8 8 8 9 10 10 10 8 9 10 11 13 15 18 21 22 22 22 19 16 15 15 14 13 15 16 17 18 19 18 19 19 20 21 21 20 20 20 19 19 19 19 19 19 18 17 16
2 5 5 5 7 7 8 9 6 7 9 5 5 6 6 6 8 8 6 5 4 5 5 4 4 4 5 6 6 7 7 6 7 8 6 5 6 6 6 7 7 9 12 13 13 12 11 10 10 11 12 14 17 20 22 22 21 19 18 17 15 14 14 15 15 15 16 16 17 17 17 19 20 20 20 20 19 19 18 18 17 17 16 15 14 14
5 6 5 5 5 6 12 10 2 3 8 6 7 7 6 7 9 8 5 4 4 5 4 2 2 4 5 6 7 9 9 7 6 8 7 6 6 7 6 7 8 10 12 14 13 12 12 11 12 13 14 15 16 18 20 20 20 19 18 17 16 15 15 15 15 15 15 15 16 17 17 17 18 18 19 19 19 18 17 16 15 14 13 12 12 12
6 6 4 4 5 8 13 9 5 2 8 8 6 7 10 9 8 6 5 5 6 7 6 4 2 1 3 6 7 9 10 8 7 8 8 7 7 8 8 8 9 10 11 12 13 13 14 13 14 15 15 15 16 17 18 19 19 18 18 17 16 16 16 15 15 15 16 16 16 17 16 16 17 17 17 18 18 18 17 16 15 12 10 10 12 12
7 7 7 6 8 10 10 6 6 5 8 8 5 8 9 7 6 7 7 7 8 7 8 8 6 5 5 4 5 8 10 10 9 9 9 7 7 8 9 9 9 9 10 11 11 11 12 13 14 14 13 13 14 16 17 18 19 19 18 18 16 15 15 15 14 14 15 16 17 17 17 17 17 17 17 17 18 18 19 19 17 14 10 9 12 14
Wind_Direction
181 185 198 203 205 203 201 203 213 222 214 202 205 217 217 212 238 213 218 242 170 161 228 217 235 241 225 225 234 245 242 232 238 237 242 244 238 241 243 243 241 235 239 242 237 232 228 225 224 223 222 221 221 222 221 220 221 223 223 221 222 222 221 220 219 219 220 219 219 220 222 224 226 226 227 229 231 231 232 231 230 229 229 230 230 228
190 202 211 210 212 211 206 207 216 224 226 224 206 205 223 219 233 219 207 233 197 194 244 229 241 248 233 222 229 239 243 237 230 229 236 241 241 238 237 244 245 245 253 256 251 241 235 230 227 223 221 218 219 220 219 220 222 223 222 221 222 221 219 219 219 218 218 219 218 219 221 223 224 224 224 226 229 230 231 230 229 229 230 231 230 229
211 213 215 215 216 215 211 206 210 220 226 232 216 203 229 217 225 246 211 217 201 203 248 242 245 254 244 229 228 228 237 235 218 218 222 227 238 239 232 236 244 252 261 260 254 245 237 234 230 224 221 219 220 221 220 221 224 222 221 221 222 221 219 220 220 219 220 221 220 221 223 223 223 225 226 228 230 230 230 230 230 230 231 231 230 229
210 213 214 215 214 211 215 205 204 218 224 228 220 213 233 207 193 240 225 206 201 206 236 231 239 255 251 238 234 228 235 241 222 220 220 218 224 229 230 230 235 242 250 254 251 243 237 235 231 224 222 222 221 221 221 222 223 222 222 222 221 221 221 222 221 221 222 222 222 222 224 225 225 228 230 231 233 232 231 231 231 231 231 230 230 230
223 224 205 207 211 206 212 205 202 214 220 224 219 215 231 212 199 226 209 177 204 232 236 236 271 263 232 226 239 234 241 251 237 226 231 233 231 232 239 241 241 242 244 251 252 244 236 233 230 226 224 224 221 220 222 223 222 222 223 224 223 222 223 223 223 223 222 220 220 219 221 225 227 229 231 231 232 230 230 231 231 231 230 229 231 231
229 225 165 194 210 202 209 209 202 206 216 225 217 215 226 206 190 211 176 150 189 242 228 198 252 266 226 217 226 216 227 243 239 231 231 233 235 235 239 242 242 246 246 247 251 249 241 233 231 229 227 224 221 222 224 225 224 223 224 225 224 222 223 224 225 224 220 217 217 214 212 215 217 221 224 226 226 224 224 228 230 230 229 229 230 230
227 217 172 193 201 194 209 215 203 200 214 231 210 208 219 199 174 194 174 165 193 236 226 182 221 265 264 225 223 207 211 229 235 239 239 233 233 234 234 236 235 241 245 245 248 248 245 241 235 232 230 226 224 226 228 227 226 225 225 226 224 223 223 224 225 222 218 216 217 215 214 214 213 216 223 226 226 224 224 227 228 228 228 228 229 229
205 209 199 196 191 191 208 213 198 193 204 230 204 192 204 201 204 205 192 201 211 279 285 197 203 254 269 241 211 193 205 228 235 240 246 238 231 236 237 239 237 237 239 240 244 245 243 244 241 237 234 231 230 231 230 228 226 225 226 226 225 224 224 225 224 221 217 216 216 217 218 219 219 221 227 229 227 226 227 227 228 228 228 228 228 228
195 205 205 202 197 198 207 205 192 192 208 228 155 165 196 205 210 207 199 225 246 13 260 216 173 236 259 237 169 182 207 228 233 235 245 241 228 233 235 237 239 238 238 237 240 243 242 243 243 241 239 237 235 233 231 230 228 227 226 227 226 224 224 225 223 220 218 217 217 218 218 221 224 227 231 234 232 230 228 228 229 228 228 228 228 228
211 210 204 200 207 209 208 201 179 188 215 223 128 155 204 208 204 199 199 213 205 216 225 216 185 218 256 244 169 191 215 223 230 231 239 239 224 225 231 233 238 241 243 241 239 242 243 241 242 243 242 240 237 234 233 232 230 228 227 227 226 225 225 225 224 221 219 219 218 218 218 221 226 229 233 236 236 233 230 229 230 229 228 227 227 228
312 281 198 188 209 208 199 196 174 184 195 101 94 113 4 59 177 184 194 185 198 230 223 213 201 205 251 254 200 201 219 215 221 229 237 239 229 227 230 231 236 239 242 243 242 243 245 246 245 243 241 240 238 235 234 233 231 228 228 227 227 227 227 226 224 222 221 220 218 219 219 222 225 228 231 232 233 233 230 229 229 229 228 227 227 228
228 298 202 209 220 173 169 198 206 180 177 134 98 130 336 315 121 120 161 169 209 229 211 207 206 201 233 249 207 195 222 214 211 224 231 235 233 229 230 231 233 237 241 244 247 248 249 249 247 242 239 239 238 235 233 233 231 229 228 228 228 229 228 227 225 223 222 221 219 220 221 223 226 228 229 229 230 231 229 229 230 229 229 228 228 228
218 216 218 307 310 159 172 193 296 32 168 177 157 157 199 214 192 202 192 203 228 232 206 197 202 208 232 250 235 211 224 218 216 227 228 232 236 234 233 235 234 236 240 244 246 248 248 246 244 239 237 238 237 236 234 234 232 230 230 228 228 230 229 227 226 224 223 222 221 222 223 224 227 228 229 229 231 231 230 230 230 229 227 227 227 227
221 241 208 221 300 206 186 184 193 202 187 195 185 176 199 200 207 216 201 215 232 232 223 195 196 213 232 244 238 231 233 229 223 228 225 228 235 237 236 237 238 238 238 241 243 245 247 246 245 242 240 240 240 239 237 236 234 232 231 230 229 231 232 229 227 225 224 223 224 224 225 226 227 228 230 230 231 232 232 231 230 229 227 227 228 228
201 225 199 192 198 187 195 202 197 178 183 204 195 192 209 204 225 230 201 220 236 241 243 190 188 204 200 227 232 221 225 231 233 232 228 235 238 239 243 242 244 244 240 243 247 247 248 248 248 247 246 244 242 242 241 238 236 234 233 232 230 232 233 231 228 227 225 225 226 226 227 227 228 229 231 231 232 233 232 232 230 230 229 229 231 232
205 237 217 201 189 164 190 213 184 140 176 213 178 204 221 211 225 247 226 219 226 242 242 195 221 224 219 267 269 198 204 218 232 237 234 242 246 243 249 249 246 247 244 244 248 251 252 252 251 249 247 247 245 244 242 239 237 234 234 234 232 233 235 233 230 228 227 228 228 228 228 228 229 230 231 232 233 233 233 233 231 231 231 232 234 235
201 235 216 185 191 185 191 193 173 167 178 169 175 207 215 163 197 234 258 254 154 228 222 194 237 258 269 277 264 217 215 205 221 233 227 236 245 243 246 247 245 247 247 247 247 251 255 254 251 248 246 247 246 244 243 241 239 237 236 236 234 235 236 235 232 230 229 229 229 229 229 229 229 230 230 232 233 234 234 233 232 233 234 234 235 236
188 225 211 152 196 213 188 155 168 186 162 133 196 203 161 60 88 199 244 239 205 235 229 199 224 225 211 247 240 227 232 206 216 231 226 232 239 239 245 249 250 249 248 252 253 253 256 255 251 249 247 246 245 243 243 243 242 240 239 238 236 236 236 236 235 232 231 229 228 230 230 230 230 230 231 232 233 234 233 232 232 233 234 235 236 236
170 224 275 184 190 190 103 129 178 215 194 162 197 189 126 224 228 178 202 225 220 234 238 212 224 219 198 216 236 232 225 204 214 228 230 234 235 238 250 254 255 255 251 255 257 258 258 255 252 250 249 249 247 245 244 245 246 244 241 239 238 238 239 239 237 234 232 230 229 230 231 231 231 231 232 232 233 233 232 232 232 233 234 236 236 235
154 188 270 245 187 144 120 166 193 215 232 73 199 237 74 208 224 206 197 218 220 231 239 223 224 225 195 195 218 233 225 201 207 224 235 240 235 231 240 245 249 253 253 253 256 261 262 259 257 254 253 252 249 246 245 245 246 246 244 242 240 240 241 240 238 235 233 233 231 232 233 233 233 232 233 233 233 232 232 232 233 233 235 236 236 235
109 186 237 304 160 149 166 202 199 201 196 149 194 212 198 193 247 274 228 220 206 219 236 230 224 223 186 180 209 229 232 199 188 212 234 243 241 234 235 244 253 258 260 262 261 263 266 267 265 262 258 255 250 247 245 245 245 245 244 242 240 240 239 240 239 236 235 234 233 233 233 233 233 233 233 233 233 232 233 234 234 235 236 236 236 235
136 189 193 161 159 176 197 203 198 205 198 188 202 206 206 212 224 279 258 218 184 204 214 223 235 249 235 199 209 232 242 208 189 210 233 250 257 259 260 256 259 263 262 264 263 262 265 266 268 268 263 255 250 247 245 244 243 243 242 240 239 238 238 239 239 238 237 236 235 235 235 234 234 234 233 233 232 232 233 234 235 236 236 236 236 235
129 122 136 171 200 210 212 164 84 103 178 196 217 206 207 212 207 228 238 222 221 217 191 197 240 263 260 232 221 242 247 217 209 214 220 249 264 271 271 261 257 261 261 262 264 265 266 265 267 271 268 257 250 247 247 245 242 240 241 241 238 236 236 238 239 240 240 239 239 239 238 237 236 235 234 232 232 232 233 234 235 236 236 236 237 236
151 121 153 194 261 284 273 344 23 31 69 184 228 210 207 209 207 220 232 236 246 233 212 238 239 222 248 249 243 258 249 216 220 216 195 245 278 278 272 267 258 259 267 272 275 275 275 276 274 270 265 256 251 248 247 244 241 240 241 240 238 237 239 241 242 244 245 245 245 244 242 240 238 236 234 233 233 233 234 235 235 235 235 236 237 236
187 177 178 183 149 315 287 311 320 325 139 197 217 214 213 211 211 223 234 238 247 240 234 253 250 215 248 278 277 282 272 247 228 223 204 233 268 277 281 284 277 273 284 292 294 294 291 291 288 271 249 244 246 246 244 242 240 240 241 241 241 244 247 248 247 247 248 248 249 248 246 243 240 238 236 235 235 235 236 236 235 235 235 236 236 236
182 187 186 189 192 200 208 216 223 220 198 196 217 219 219 213 208 214 229 230 236 238 233 241 247 244 290 290 274 272 274 271 264 258 253 242 246 259 272 284 289 294 296 291 295 299 296 295 291 277 263 254 247 242 239 240 241 242 243 246 248 252 256 256 254 253 252 250 250 250 248 246 243 241 240 239 238 238 238 237 236 236 236 236 237 237
163 197 198 203 210 209 209 217 214 126 136 185 209 214 220 221 211 211 229 230 230 243 241 240 242 245 263 268 263 262 267 276 281 271 261 253 251 260 266 276 289 294 290 285 293 301 302 300 293 283 279 281 274 262 249 242 242 244 249 255 260 265 267 266 262 259 256 253 251 250 250 249 248 247 246 245 244 242 241 239 238 237 237 237 237 236
125 207 206 208 220 223 219 221 120 88 146 193 205 212 217 220 215 217 229 232 229 238 245 244 228 224 237 249 259 265 267 274 279 269 257 250 256 273 282 289 295 296 298 305 311 307 303 302 301 295 288 283 282 278 267 253 248 253 261 268 275 277 276 274 270 264 260 256 253 253 254 255 255 255 254 253 251 248 245 242 241 240 239 238 237 237
147 213 208 204 225 235 234 230 157 115 157 166 178 202 209 210 215 222 231 238 237 237 251 265 245 227 235 248 260 265 262 261 268 268 264 265 271 282 288 293 296 295 298 302 302 299 300 303 304 303 298 289 279 279 276 270 266 265 265 268 270 267 265 266 265 262 259 256 255 258 261 262 263 262 261 260 256 253 249 245 243 241 239 238 237 238
169 205 187 182 221 238 238 237 225 202 209 185 188 206 208 208 214 220 228 234 237 240 250 264 264 258 258 269 271 268 254 241 262 272 275 276 278 281 283 282 280 280 283 284 283 284 292 302 302 296 297 297 294 293 290 287 283 274 264 254 245 241 241 245 250 252 252 253 257 263 267 269 270 269 267 264 260 256 252 248 244 241 239 237 237 238
197 194 133 135 209 243 234 226 220 198 209 229 226 220 222 227 228 225 223 224 230 238 239 242 254 262 258 255 266 271 268 263 268 269 269 269 265 265 270 273 273 273 270 268 269 273 282 295 301 298 298 298 299 295 289 288 286 276 265 254 244 237 236 239 244 247 248 252 259 264 267 269 271 273 271 267 262 258 254 249 246 243 240 239 238 238
177 190 94 113 190 240 217 196 191 132 128 235 240 223 217 220 225 227 221 211 210 220 232 235 241 251 248 240 254 265 267 263 262 263 264 264 257 252 255 260 263 267 268 266 263 265 271 276 281 288 295 300 307 310 304 298 291 278 269 268 265 262 254 247 246 250 254 258 260 258 258 260 262 266 267 266 262 258 255 251 248 244 242 241 240 239
153 156 124 142 190 249 221 153 147 103 82 260 243 220 215 218 225 234 240 228 211 202 216 232 231 237 243 238 242 254 257 256 256 256 255 260 258 250 245 248 252 256 260 261 256 250 253 255 256 269 283 298 319 331 327 313 301 289 281 279 279 275 267 260 260 262 264 267 266 261 257 252 250 252 256 259 259 258 255 251 248 246 245 244 243 242
150 151 162 161 167 252 245 126 112 128 232 248 241 193 198 208 215 223 233 229 216 207 218 235 240 240 244 242 240 249 255 256 256 253 247 249 255 251 245 244 245 249 255 258 255 247 244 248 253 262 275 297 325 338 334 321 314 314 316 337 52 269 275 277 278 281 284 282 277 271 263 257 252 250 250 251 253 255 254 252 252 251 250 248 246 244
151 142 153 157 123 165 206 86 90 215 225 251 315 193 190 199 203 212 230 234 226 224 230 240 248 246 245 248 246 249 257 258 256 255 250 246 247 249 249 246 243 244 250 257 259 253 237 229 242 248 264 355 358 357 345 331 328 331 335 3 59 80 55 3 337 320 307 299 295 287 275 269 265 260 256 253 250 250 249 251 253 254 253 251 249 247
151 140 134 129 111 130 109 105 174 246 283 296 281 249 207 199 186 198 241 250 233 225 225 230 241 243 242 247 250 250 255 261 264 265 260 255 253 254 254 254 250 242 241 247 253 252 230 201 202 182 121 81 62 53 10 330 324 326 330 13 54 70 70 62 49 22 349 328 320 312 300 290 281 275 272 265 257 252 248 248 251 253 254 253 251 250
143 139 129 117 138 146 124 173 242 323 319 282 261 218 179 182 152 161 232 257 232 216 216 220 232 240 240 245 251 252 258 273 286 279 264 252 247 249 250 250 248 242 242 246 240 219 195 185 177 147 122 105 85 72 58 7 317 273 57 54 54 59 64 62 52 37 18 356 343 335 326 315 302 295 290 282 274 267 263 261 260 260 260 259 256 253
138 146 153 149 163 127 113 192 285 350 275 263 255 129 152 170 150 145 186 264 246 216 208 214 226 236 239 243 251 256 265 284 284 275 270 247 221 227 237 242 241 228 215 202 166 159 160 154 130 105 111 107 92 82 89 105 124 111 72 55 47 47 48 44 36 29 18 359 348 343 337 329 317 310 307 301 295 290 286 284 280 275 272 269 267 264
92 106 134 138 158 144 132 181 223 211 251 259 215 121 155 153 129 112 95 274 259 230 201 206 223 233 240 244 248 251 258 263 261 269 272 216 198 219 230 233 220 156 152 160 163 165 151 129 105 80 76 75 67 69 91 111 113 92 69 52 43 37 29 23 20 17 6 348 336 332 330 329 320 309 305 304 305 301 295 291 288 284 281 278 276 275
98 106 141 159 186 163 143 190 226 225 255 261 141 128 165 125 106 90 83 260 258 232 180 195 219 233 239 242 244 240 227 231 249 264 260 185 203 237 233 214 174 145 145 143 147 156 143 125 106 82 63 52 51 67 96 105 93 76 60 49 46 36 19 10 15 20 12 355 342 337 336 339 345 343 326 313 310 304 295 291 287 285 285 283 282 279
146 172 174 186 202 170 157 210 260 255 257 255 142 129 133 99 89 129 215 243 260 233 151 185 210 226 235 238 238 233 227 231 247 269 296 288 307 6 44 136 143 140 143 139 139 136 122 110 101 89 77 69 73 85 100 99 84 67 54 47 41 31 17 13 21 33 40 35 26 23 20 18 22 23 16 357 336 322 311 302 294 289 290 289 286 284
170 179 182 191 200 174 168 208 275 283 265 234 152 145 139 118 158 225 230 251 273 259 151 188 214 226 233 236 233 234 244 258 287 324 358 4 1 28 38 54 92 107 119 128 134 130 118 106 98 93 87 86 89 93 99 95 82 68 60 48 33 24 21 22 29 42 53 55 52 50 47 44 44 42 39 34 24 15 4 345 326 314 308 302 298 295
167 165 194 203 187 156 156 168 210 259 256 158 138 149 158 171 214 238 251 270 273 233 180 215 238 238 234 243 249 253 272 323 11 27 37 37 38 43 33 35 60 68 75 98 120 129 120 110 101 94 87 84 85 85 89 88 80 70 64 51 38 35 33 28 31 44 52 53 51 51 50 50 52 52 51 49 48 48 44 32 24 16 2 349 338 328
173 174 190 196 171 150 165 186 213 237 227 137 137 161 191 206 215 200 216 258 278 254 191 222 254 264 261 265 271 280 318 66 105 101 86 74 68 67 54 39 42 38 40 64 89 112 111 107 104 96 87 82 80 77 79 80 76 69 61 50 47 53 48 35 34 42 46 46 44 44 46 48 49 50 49 48 47 48 45 40 39 37 30 22 15 2
201 197 176 167 177 182 192 208 222 233 214 164 181 189 195 217 231 126 171 253 274 227 183 202 253 263 245 227 231 205 180 175 163 146 126 116 106 96 87 67 52 43 40 54 67 80 89 95 98 93 82 75 75 74 75 76 75 69 59 52 55 58 54 46 41 40 42 41 38 36 37 41 44 45 45 44 42 42 39 35 34 33 29 26 23 17
213 187 133 128 188 211 243 242 238 246 242 221 239 243 203 230 268 191 214 248 246 211 190 203 238 242 206 184 191 194 194 177 150 139 132 123 117 109 104 92 68 51 41 39 43 56 73 80 82 82 76 68 66 68 69 72 73 70 64 60 61 58 55 52 47 41 39 38 35 32 29 30 33 35 37 39 38 39 38 34 30 29 27 26 24 21
238 174 158 175 176 188 242 244 234 244 247 225 234 265 246 234 241 221 222 241 229 200 201 214 226 223 194 190 194 183 175 162 140 131 125 117 113 107 104 101 92 76 58 37 21 24 47 61 63 68 70 64 60 62 64 65 65 66 65 64 62 60 57 55 50 43 38 36 34 32 28 24 23 24 27 29 30 32 33 31 28 27 25 24 22 18
204 166 178 206 190 192 237 239 220 257 268 225 202 242 241 227 236 234 233 237 219 204 218 221 208 192 179 181 175 154 148 153 146 138 132 123 117 111 103 100 99 93 83 69 48 34 33 40 47 54 58 58 60 63 64 62 60 60 60 57 53 53 54 52 49 45 40 36 35 34 31 27 23 19 19 20 21 22 22 21 21 22 25 25 20 13
144 156 181 196 190 230 260 254 204 320 294 252 212 228 237 232 238 239 231 221 207 205 210 189 177 199 186 171 160 146 142 153 154 140 133 131 125 118 111 101 92 86 84 82 78 67 54 46 45 47 46 48 55 62 64 61 58 57 56 52 47 46 46 44 42 39 36 35 34 32 30 29 26 21 18 15 15 16 16 16 16 15 20 28 26 15
148 172 177 152 173 226 247 237 173 198 267 255 214 217 233 231 223 217 208 204 207 204 186 160 141 183 161 157 160 152 145 148 152 142 135 134 129 123 119 112 101 90 86 86 85 81 75 67 60 56 49 46 50 55 56 55 53 51 51 51 49 47 44 41 38 33 29 27 26 23 23 24 22 19 16 12 8 6 6 11 15 16 18 22 19 11
184 188 170 173 211 229 230 208 158 177 245 255 216 210 229 220 191 198 209 208 208 204 184 169 159 143 138 143 154 153 148 146 149 144 133 127 126 121 114 108 103 99 98 97 93 85 80 75 71 65 59 54 54 55 52 49 46 44 46 49 50 51 49 44 40 32 24 20 18 15 15 16 13 11 10 7 3 0 357 357 1 7 13 9 360 360